{"data":{"norad_id":62528,"epoch":"2026-05-24T11:22:33.005568Z","epoch_age_seconds":134680,"freshness":"FRESH","line1":"1 62528U 25004T   26144.47399312  .00014647  00000+0  54049-3 0  9995","line2":"2 62528  43.0034 151.4712 0001835 268.1075  91.9566 15.27594207 77109","mean_motion":15.27594207,"eccentricity":0.0001835,"inclination_deg":43.0034,"raan_deg":151.4712,"arg_perigee_deg":268.1075,"mean_anomaly_deg":91.9566,"bstar":0.00054049,"rev_number":7710,"period_min":94.265872009817,"perigee_km":481.74753565798,"apogee_km":484.26557534285,"semimajor_km":6861.1435555004,"source":"CELESTRAK","updated_at":"2026-05-25T13:38:19.705398Z"}}